Regional Weather Roundup
Issued by NWS Nashville, TN

Home | Current Version | Previous Version | Text Only | Print | Product List | Glossary On
Versions: 1 2 3 4 5 6 7 8 9 10 11 12 13 14 15 16 17 18 19 20 21 22 23 24 25 26 27 28 29 30 31 32 33 34 35 36 37 38 39 40 41 42 43 44 45 46 47 48 49 50
000
ASUS44 KOHX 202310
RWROHX
MIDDLE TENNESSEE HOURLY WEATHER ROUNDUP
NATIONAL WEATHER SERVICE NASHVILLE TN
600 PM CDT THU JUL 20 2017

NOTE: "FAIR" INDICATES FEW OR NO CLOUDS BELOW 12,000 FEET WITH
NO SIGNIFICANT WEATHER AND/OR OBSTRUCTIONS TO VISIBILITY.

* THESE REPORTS ARE NOT UNDER NWS QUALITY CONTROL AND MAY NOT
  REPORT WEATHER SUCH AS PRECIPITATION AND FOG.


TNZ005>011-023>034-057-059-062>066-078-080-210000
...NORTHERN MIDDLE TENNESSEE...

CITY           SKY/WX    TMP DP  RH WIND       PRES   REMARKS
CLARKSVILLE    CLOUDY    89  72  56 SW7       30.02F HX  96
CROSSVILLE     MOSUNNY   81  72  74 NW5       30.11F
GALLATIN       SUNNY     93  73  52 CALM      30.04F HX 102
DICKSON        CLOUDY    89  72  57 NW5       30.05F HX  96
LEBANON        CLOUDY    92  72  51 W3        30.01  HX  99
NASHVILLE      CLOUDY    92  71  50 CALM      30.03F HX  98
PORTLAND       SUNNY     90  73  58 VRB5      30.02F HX  98
SMYRNA         MOSUNNY   93  71  48 CALM      30.02F HX 100
SPARTA         SUNNY     88  77  70 CALM      30.05F HX 100
WEST NASHVILLE SUNNY     91  73  55 W6        30.00F HX 100
$$
TNZ056-058-060-061-075>077-079-093>097-210000
...SOUTHERN MIDDLE TENNESSEE...

CITY           SKY/WX    TMP DP  RH WIND       PRES   REMARKS
COLUMBIA       SUNNY     91  72  52 CALM      30.02F HX  98
FAYETTEVILLE   MOSUNNY   91  72  52 N7        30.05F HX  98
MCMINNVILLE    SUNNY     90  75  62 CALM      30.06F HX 100
MURFREESBORO   MOSUNNY   92  66  42 NW3       30.02F HX  94
PULASKI        SUNNY     91  72  52 N5        30.03F HX  98
TULLAHOMA      SUNNY     88  70  55 N5        30.08S HX  92
WINCHESTER     SUNNY     90  72  55 N5        30.05F HX  96
$$


...KEY TO REMARKS...
VSB - VISIBILITY IN MILES
WCI - WIND CHILL INDEX
HX  - HEAT INDEX




USA.gov is the U.S. government's official web portal to all federal, state and local government web resources and services.